Lid_Strength_Index
7 7 7 7 7 7 7 7 7 7 7 7 7 7 7 7 7 8 10 9 10 10 9 7 6 7 7 7 10 8 8 8 9 11 11 11 12 11 12 11 11 12 13 13 14 15 15 7 8 10 8 8 7 7
7 7 7 7 7 7 7 7 7 7 7 7 7 7 7 7 7 8 12 9 9 12 9 7 6 5 4 4 7 8 8 8 7 10 10 10 11 11 12 13 9 12 11 11 11 11 8 8 8 7 8 8 8 7
8 8 8 8 8 7 7 7 7 7 7 7 7 7 7 7 7 8 12 12 12 12 11 11 10 7 7 6 5 8 7 6 7 7 9 9 11 10 13 12 10 10 9 10 11 9 8 7 6 6 6 6 6 6
8 8 8 7 7 7 7 7 6 6 6 6 6 6 6 6 6 6 11 11 12 13 14 12 7 9 8 8 7 6 6 5 6 7 9 10 11 9 10 10 10 9 9 10 10 9 7 6 6 5 5 5 5 5
7 7 7 6 6 5 5 5 5 4 4 4 4 4 4 4 4 5 8 8 8 12 15 14 11 8 8 8 8 7 8 7 7 9 9 10 8 9 9 10 11 9 10 10 11 8 8 7 6 5 5 6 6 5
6 6 5 5 4 4 4 4 4 4 4 4 4 4 4 3 4 8 11 7 7 8 12 13 10 8 7 8 8 8 8 8 7 9 9 8 6 8 11 12 9 8 8 7 7 7 6 5 5 5 5 5 5 5
4 4 4 4 4 4 4 4 4 4 4 4 4 3 3 4 7 11 11 6 5 8 10 11 11 6 5 6 8 9 9 8 8 8 9 9 8 7 10 11 8 7 6 6 6 6 7 6 6 5 5 5 5 6
4 4 4 4 4 4 4 4 4 4 4 4 3 3 3 3 5 8 7 5 6 10 7 9 10 9 5 7 8 8 9 9 9 9 9 9 9 9 11 9 7 6 6 6 5 5 6 6 6 6 6 6 7 6
4 4 4 4 4 4 4 3 3 3 3 3 3 3 5 7 10 8 1 2 6 6 8 9 11 12 6 7 7 7 7 10 9 9 10 9 10 12 10 7 7 6 6 6 6 6 6 6 7 7 7 7 7 7
4 4 4 4 4 3 3 2 2 2 2 2 5 7 9 4 -0 0 3 6 7 7 5 9 8 10 8 8 9 9 7 9 12 9 9 9 10 8 8 7 6 5 6 5 7 7 7 7 7 7 7 7 7 5
4 4 3 3 3 2 2 2 2 2 2 6 8 8 6 2 4 6 8 8 8 10 9 9 8 10 7 10 10 8 10 10 13 10 10 12 11 8 7 6 6 5 5 5 5 6 6 7 7 7 7 6 5 5
3 3 2 2 2 2 2 1 1 4 6 4 5 3 4 5 7 8 9 8 9 10 8 9 8 7 8 6 9 9 11 10 14 8 11 13 11 8 7 6 6 5 5 5 5 6 6 6 7 7 7 6 5 4
2 2 2 2 2 2 2 1 1 1 1 2 4 6 6 7 11 12 13 11 11 8 7 7 9 8 7 7 9 9 12 13 9 12 13 10 8 7 6 7 6 5 5 6 6 6 6 6 6 6 5 4 4 5
2 2 2 1 1 2 1 1 1 1 3 6 8 11 10 11 10 10 9 9 7 7 7 7 8 9 7 9 9 12 10 10 14 15 14 10 7 7 6 6 6 7 7 7 7 6 6 6 5 5 5 4 4 5
2 2 2 2 1 1 1 0 1 2 4 7 8 11 10 8 7 7 6 7 6 5 6 8 8 8 9 10 10 10 12 14 13 14 11 8 7 6 7 7 7 7 7 7 6 6 5 5 5 5 4 4 4 4
2 2 3 1 1 0 0 1 2 3 5 7 8 9 7 9 8 7 7 7 5 6 6 7 9 11 11 11 12 13 13 14 12 9 8 8 6 6 6 6 7 6 6 7 7 6 5 5 5 4 4 4 4 4
2 5 2 1 0 1 0 2 4 5 7 8 9 7 8 8 8 7 6 6 4 6 9 9 12 12 9 12 13 11 12 10 8 8 9 7 6 6 5 5 5 6 6 6 6 5 5 4 4 5 5 4 3 3
5 2 1 0 1 2 2 3 5 6 8 8 9 9 8 7 7 6 7 5 6 7 7 10 9 11 12 13 12 9 8 7 7 8 8 7 6 5 4 5 5 6 6 6 5 5 5 5 5 5 4 3 4 4
4 3 1 1 2 4 5 5 5 8 8 9 8 7 6 6 6 5 5 5 4 4 6 8 10 11 11 9 9 8 7 7 8 8 6 6 8 4 4 4 5 5 5 5 5 5 5 4 4 3 4 3 4 4
2 2 1 1 2 5 6 6 6 8 9 9 8 8 8 7 6 6 6 6 5 6 9 10 9 8 8 7 6 7 6 5 7 8 7 7 8 7 4 4 5 5 5 4 5 6 5 4 4 4 4 4 5 5
3 3 2 3 4 4 7 8 8 8 8 8 7 8 8 7 7 7 7 7 7 9 9 8 7 7 5 5 5 5 5 6 7 8 8 9 8 8 8 5 5 5 5 5 5 6 5 4 3 3 4 3 3 3
5 2 5 4 7 6 7 7 8 7 8 8 8 8 9 9 8 8 7 9 9 8 8 8 7 6 6 6 6 6 6 5 6 7 7 8 9 7 7 6 4 5 4 5 4 4 4 3 3 3 3 3 4 3
4 5 7 5 7 8 10 7 10 9 10 8 7 8 9 9 8 6 9 8 8 8 7 6 6 6 5 6 6 6 5 6 6 7 7 8 7 7 6 4 3 4 4 4 3 3 3 5 4 3 3 3 3 3
4 7 9 9 9 11 10 10 8 8 8 9 9 10 9 8 7 9 9 9 8 7 7 7 6 5 5 6 7 6 6 6 7 7 7 7 8 7 7 7 4 3 3 3 3 3 3 3 5 3 3 3 3 4
12 12 11 13 10 10 11 12 11 10 11 10 12 11 9 7 10 10 11 9 8 7 6 6 5 5 5 7 7 6 5 6 6 7 7 7 8 7 6 4 3 3 2 3 3 4 4 4 4 4 4 3 3 4
13 12 14 11 11 13 11 11 10 10 10 11 11 10 8 9 11 11 9 8 7 7 6 5 5 6 7 7 7 7 6 6 6 7 7 7 7 8 5 5 5 4 2 2 3 4 3 3 4 3 3 4 6 4
13 13 11 9 11 10 10 10 9 10 10 10 10 11 13 14 13 10 7 7 7 6 4 4 4 5 7 7 7 6 5 6 6 7 7 7 6 6 4 4 4 3 2 2 2 2 3 3 3 3 3 2 3 3
11 11 13 11 10 9 11 11 10 11 10 8 9 11 14 14 12 8 6 5 4 3 3 3 3 3 5 7 6 6 6 6 6 6 6 6 5 3 2 2 1 6 2 1 1 2 2 2 3 2 3 3 3 3
10 9 9 11 10 10 10 10 10 9 8 9 10 10 9 7 5 5 4 3 3 4 4 4 4 5 5 5 6 6 6 7 7 7 8 7 5 4 2 3 3 2 3 3 6 4 1 2 3 2 2 2 3 3
10 8 10 10 10 10 9 8 9 8 7 8 7 7 7 6 4 3 4 4 5 4 4 3 3 5 6 7 6 6 6 6 6 6 7 5 4 3 3 3 3 3 4 3 2 2 7 4 5 4 3 3 3 3
9 9 10 9 10 9 8 7 7 7 7 7 7 8 8 7 5 3 3 4 4 4 4 4 4 4 4 4 6 6 6 4 5 5 4 3 4 2 2 2 3 3 2 3 3 3 3 4 3 3 3 3 3 4
11 11 11 11 10 8 7 8 7 7 7 8 8 7 7 7 8 6 4 4 4 4 5 4 5 5 3 3 3 3 5 2 2 2 2 2 2 2 2 2 3 3 2 4 3 2 2 2 2 3 3 3 3 3
11 11 10 10 10 10 8 8 8 9 8 9 8 7 7 8 8 5 4 3 3 3 3 3 3 2 2 2 2 2 4 3 4 7 7 7 7 4 3 2 2 2 2 3 3 2 3 3 3 3 3 3 3 3